TPC5711 KMSP-KDTW

Flight info

Callsign TPC5711
Flight time 1h 10m
Altitude 37000
Route COULT7 DLL DCT PORZL RKCTY2
Aircraft B737/M-SDE2E3FGHIRWXY/LB1

Departure

Time 2026-05-05 03:58
Airport Minneapolis–Saint Paul International Airport / Wold–Chamberlain Field (KMSP)

Arrival

Time 2026-05-05 05:08
Airport Detroit Metropolitan Wayne County Airport (KDTW)
Time Latitude Longitude Altitude Speed Heading
2026-05-05 03:28 44.87888 -93.20664 825 ft 0 kts 31°
2026-05-05 03:40 44.87888 -93.20663 832 ft 0 kts 38°
2026-05-05 03:43 44.87882 -93.20670 830 ft 4 kts 34°
2026-05-05 03:43 44.87859 -93.20685 828 ft 4 kts 25°
2026-05-05 03:43 44.87838 -93.20698 830 ft 4 kts
2026-05-05 03:44 44.87815 -93.20689 826 ft 4 kts 315°
2026-05-05 03:44 44.87805 -93.20672 826 ft 1 kts 305°
2026-05-05 03:44 44.87804 -93.20670 827 ft 0 kts 305°
2026-05-05 03:49 44.87810 -93.20680 833 ft 2 kts 312°
2026-05-05 03:49 44.87826 -93.20721 828 ft 8 kts 297°
2026-05-05 03:50 44.87861 -93.20806 832 ft 12 kts 301°
2026-05-05 03:50 44.87909 -93.20915 832 ft 15 kts 301°
2026-05-05 03:50 44.87974 -93.21061 831 ft 20 kts 306°
2026-05-05 03:50 44.88011 -93.21224 833 ft 18 kts 272°
2026-05-05 03:51 44.88049 -93.21393 831 ft 20 kts 303°
2026-05-05 03:51 44.88156 -93.21506 832 ft 19 kts 321°
2026-05-05 03:51 44.88231 -93.21658 831 ft 19 kts 302°
2026-05-05 03:51 44.88298 -93.21804 833 ft 17 kts 313°
2026-05-05 03:52 44.88385 -93.21827 837 ft 13 kts 24°
2026-05-05 03:52 44.88453 -93.21746 834 ft 13 kts 44°
2026-05-05 03:52 44.88513 -93.21658 835 ft 12 kts 44°
2026-05-05 03:52 44.88575 -93.21574 839 ft 12 kts 44°
2026-05-05 03:53 44.88634 -93.21493 840 ft 12 kts 45°
2026-05-05 03:53 44.88692 -93.21408 833 ft 12 kts 46°
2026-05-05 03:53 44.88767 -93.21303 839 ft 17 kts 45°
2026-05-05 03:53 44.88755 -93.21145 834 ft 19 kts 122°
2026-05-05 03:54 44.88678 -93.20966 828 ft 22 kts 120°
2026-05-05 03:54 44.88599 -93.20786 833 ft 21 kts 122°
2026-05-05 03:54 44.88524 -93.20609 831 ft 21 kts 120°
2026-05-05 03:54 44.88449 -93.20440 826 ft 20 kts 122°
2026-05-05 03:55 44.88376 -93.20275 829 ft 19 kts 121°
2026-05-05 03:55 44.88309 -93.20113 829 ft 19 kts 120°
2026-05-05 03:55 44.88241 -93.19959 828 ft 18 kts 121°
2026-05-05 03:55 44.88179 -93.19807 825 ft 18 kts 124°
2026-05-05 03:56 44.88114 -93.19670 821 ft 17 kts 122°
2026-05-05 03:56 44.88062 -93.19543 823 ft 12 kts 105°
2026-05-05 03:56 44.88061 -93.19512 823 ft 0 kts 83°
2026-05-05 03:56 44.88063 -93.19502 823 ft 5 kts 71°
2026-05-05 03:57 44.88094 -93.19455 821 ft 8 kts 36°
2026-05-05 03:57 44.88150 -93.19461 824 ft 10 kts 308°
2026-05-05 03:57 44.88158 -93.19480 825 ft 0 kts 297°
2026-05-05 03:57 44.88216 -93.19618 826 ft 52 kts 302°
2026-05-05 03:58 44.88538 -93.20355 832 ft 123 kts 301°
2026-05-05 03:58 44.89058 -93.21617 998 ft 166 kts 299°
2026-05-05 03:58 44.89712 -93.23042 1704 ft 182 kts 309°
2026-05-05 03:58 44.90744 -93.24084 2451 ft 190 kts 342°
2026-05-05 03:59 44.92125 -93.24208 3097 ft 208 kts 356°
2026-05-05 03:59 44.93618 -93.24157 3773 ft 221 kts 358°
2026-05-05 03:59 44.95184 -93.23970 4574 ft 236 kts
2026-05-05 03:59 44.96647 -93.22644 5284 ft 270 kts 46°
2026-05-05 04:00 44.97375 -93.20111 6260 ft 293 kts 81°
2026-05-05 04:00 44.97112 -93.17209 6784 ft 304 kts 112°
2026-05-05 04:00 44.95965 -93.14692 7030 ft 310 kts 127°
2026-05-05 04:00 44.94752 -93.12173 7753 ft 309 kts 124°
2026-05-05 04:01 44.93583 -93.09609 8804 ft 313 kts 123°
2026-05-05 04:01 44.92417 -93.06977 9781 ft 319 kts 122°
2026-05-05 04:01 44.91254 -93.04297 10680 ft 322 kts 123°
2026-05-05 04:01 44.90097 -93.01601 11426 ft 334 kts 123°
2026-05-05 04:02 44.88845 -92.98670 11690 ft 362 kts 123°
2026-05-05 04:02 44.87528 -92.95571 12348 ft 374 kts 123°
2026-05-05 04:02 44.86169 -92.92355 13246 ft 379 kts 124°
2026-05-05 04:02 44.84833 -92.89189 14115 ft 384 kts 124°
2026-05-05 04:03 44.83446 -92.85906 14801 ft 395 kts 125°
2026-05-05 04:03 44.82020 -92.82538 15497 ft 405 kts 126°
2026-05-05 04:03 44.80562 -92.79094 16223 ft 414 kts 126°
2026-05-05 04:03 44.79074 -92.75585 16829 ft 422 kts 127°
2026-05-05 04:04 44.77563 -92.72022 16970 ft 426 kts 127°
2026-05-05 04:04 44.76045 -92.68441 16972 ft 425 kts 127°
2026-05-05 04:04 44.74532 -92.64873 16967 ft 424 kts 127°
2026-05-05 04:04 44.73021 -92.61317 16981 ft 424 kts 127°
2026-05-05 04:05 44.71508 -92.57764 16981 ft 424 kts 127°
2026-05-05 04:05 44.69991 -92.54209 16988 ft 424 kts 127°
2026-05-05 04:05 44.68473 -92.50658 16984 ft 424 kts 127°
2026-05-05 04:05 44.66953 -92.47106 16982 ft 424 kts 127°
2026-05-05 04:06 44.65431 -92.43552 16980 ft 424 kts 127°
2026-05-05 04:06 44.63926 -92.40046 16981 ft 424 kts 127°
2026-05-05 04:06 44.62403 -92.36497 16976 ft 424 kts 127°
2026-05-05 04:06 44.60879 -92.32950 16975 ft 424 kts 127°
2026-05-05 04:07 44.59356 -92.29409 16979 ft 424 kts 127°
2026-05-05 04:07 44.57832 -92.25873 16946 ft 423 kts 127°
2026-05-05 04:07 44.56299 -92.22324 17082 ft 430 kts 127°
2026-05-05 04:07 44.54680 -92.18778 17816 ft 433 kts 131°
2026-05-05 04:08 44.52929 -92.15324 18615 ft 435 kts 134°
2026-05-05 04:08 44.51123 -92.11902 19361 ft 439 kts 135°
2026-05-05 04:08 44.49307 -92.08487 20049 ft 445 kts 135°
2026-05-05 04:08 44.47425 -92.04930 20730 ft 452 kts 135°
2026-05-05 04:09 44.45577 -92.01408 21410 ft 458 kts 134°
2026-05-05 04:09 44.43692 -91.97783 22093 ft 463 kts 134°
2026-05-05 04:09 44.41786 -91.94106 22674 ft 471 kts 134°
2026-05-05 04:09 44.39853 -91.90386 23315 ft 474 kts 134°
2026-05-05 04:10 44.37910 -91.86659 23991 ft 475 kts 134°
2026-05-05 04:10 44.36093 -91.82753 24609 ft 485 kts 126°
2026-05-05 04:10 44.34470 -91.78592 25151 ft 491 kts 124°
2026-05-05 04:10 44.32876 -91.74345 25691 ft 496 kts 124°
2026-05-05 04:11 44.31285 -91.70054 26237 ft 499 kts 124°
2026-05-05 04:11 44.29677 -91.65730 26800 ft 503 kts 124°
2026-05-05 04:11 44.28045 -91.61399 27344 ft 506 kts 124°
2026-05-05 04:11 44.26396 -91.57038 27847 ft 510 kts 124°
2026-05-05 04:12 44.24731 -91.52661 28338 ft 513 kts 124°
2026-05-05 04:12 44.23047 -91.48258 28848 ft 516 kts 125°
2026-05-05 04:12 44.21351 -91.43838 29280 ft 518 kts 124°
2026-05-05 04:12 44.19646 -91.39402 29799 ft 520 kts 124°
2026-05-05 04:13 44.17930 -91.34947 30169 ft 523 kts 124°
2026-05-05 04:13 44.16201 -91.30466 30503 ft 527 kts 124°
2026-05-05 04:13 44.14459 -91.25960 30843 ft 530 kts 124°
2026-05-05 04:13 44.12707 -91.21432 31182 ft 532 kts 124°
2026-05-05 04:14 44.10945 -91.16885 31537 ft 534 kts 124°
2026-05-05 04:14 44.09182 -91.12340 32013 ft 532 kts 124°
2026-05-05 04:14 44.07432 -91.07827 32583 ft 529 kts 124°
2026-05-05 04:14 44.05685 -91.03332 33019 ft 528 kts 125°
2026-05-05 04:15 44.03933 -90.98839 33367 ft 529 kts 125°
2026-05-05 04:15 44.02174 -90.94341 33683 ft 530 kts 124°
2026-05-05 04:15 44.00418 -90.89852 34109 ft 527 kts 124°
2026-05-05 04:15 43.98672 -90.85393 34558 ft 524 kts 124°
2026-05-05 04:16 43.96934 -90.80961 34973 ft 521 kts 124°
2026-05-05 04:16 43.95201 -90.76551 35345 ft 520 kts 124°
2026-05-05 04:16 43.93473 -90.72161 35729 ft 517 kts 123°
2026-05-05 04:16 43.91752 -90.67796 36127 ft 515 kts 123°
2026-05-05 04:17 43.90035 -90.63449 36496 ft 513 kts 123°
2026-05-05 04:17 43.88341 -90.59175 36751 ft 514 kts 123°
2026-05-05 04:17 43.84864 -90.50431 36710 ft 518 kts 123°
2026-05-05 04:18 43.81406 -90.41719 36666 ft 511 kts 123°
2026-05-05 04:18 43.77984 -90.33124 36691 ft 509 kts 123°
2026-05-05 04:19 43.74557 -90.24559 36691 ft 508 kts 123°
2026-05-05 04:19 43.71134 -90.16032 36679 ft 508 kts 123°
2026-05-05 04:20 43.67701 -90.07502 36672 ft 508 kts 123°
2026-05-05 04:20 43.64262 -89.98983 36663 ft 508 kts 123°
2026-05-05 04:21 43.60828 -89.90495 36670 ft 506 kts 123°
2026-05-05 04:21 43.57395 -89.82040 36706 ft 505 kts 123°
2026-05-05 04:22 43.54738 -89.73037 36711 ft 511 kts 105°
2026-05-05 04:22 43.53641 -89.63348 36712 ft 512 kts 98°
2026-05-05 04:23 43.52910 -89.55181 36701 ft 512 kts 98°
2026-05-05 04:23 43.52001 -89.45445 36682 ft 512 kts 98°
2026-05-05 04:24 43.51038 -89.35786 36670 ft 512 kts 99°
2026-05-05 04:25 43.49536 -89.21208 36650 ft 512 kts 99°
2026-05-05 04:25 43.48527 -89.11502 36648 ft 512 kts 99°
2026-05-05 04:26 43.47512 -89.01790 36652 ft 512 kts 99°
2026-05-05 04:26 43.46489 -88.92088 36654 ft 512 kts 99°
2026-05-05 04:27 43.45459 -88.82396 36650 ft 512 kts 99°
2026-05-05 04:27 43.44420 -88.72705 36653 ft 512 kts 99°
2026-05-05 04:28 43.43374 -88.63020 36652 ft 511 kts 100°
2026-05-05 04:28 43.42327 -88.53411 36653 ft 511 kts 100°
2026-05-05 04:29 43.41266 -88.43750 36639 ft 510 kts 100°
2026-05-05 04:29 43.40199 -88.34110 36657 ft 509 kts 100°
2026-05-05 04:30 43.39126 -88.24489 36674 ft 509 kts 100°
2026-05-05 04:30 43.38046 -88.14883 36675 ft 508 kts 100°
2026-05-05 04:31 43.36966 -88.05351 36629 ft 508 kts 100°
2026-05-05 04:31 43.35872 -87.95769 36633 ft 507 kts 101°
2026-05-05 04:32 43.34771 -87.86199 36624 ft 507 kts 101°
2026-05-05 04:32 43.33663 -87.76641 36624 ft 506 kts 101°
2026-05-05 04:33 43.32547 -87.67091 36637 ft 506 kts 101°
2026-05-05 04:33 43.31425 -87.57551 36629 ft 506 kts 101°
2026-05-05 04:34 43.30301 -87.48075 36637 ft 506 kts 101°
2026-05-05 04:34 43.29164 -87.38545 36648 ft 506 kts 101°
2026-05-05 04:35 43.28017 -87.29014 36648 ft 506 kts 101°
2026-05-05 04:35 43.26866 -87.19500 36645 ft 506 kts 102°
2026-05-05 04:36 43.25906 -87.09943 36644 ft 507 kts 91°
2026-05-05 04:36 43.26229 -87.00285 36665 ft 507 kts 86°
2026-05-05 04:37 43.26776 -86.90704 36643 ft 507 kts 86°
2026-05-05 04:37 43.27226 -86.81055 36643 ft 507 kts 87°
2026-05-05 04:38 43.27590 -86.71397 36640 ft 506 kts 88°
2026-05-05 04:38 43.27928 -86.61776 36624 ft 506 kts 88°
2026-05-05 04:39 43.28263 -86.52190 36624 ft 506 kts 88°
2026-05-05 04:39 43.28596 -86.42551 36611 ft 506 kts 88°
2026-05-05 04:40 43.28921 -86.32920 36600 ft 505 kts 88°
2026-05-05 04:40 43.29238 -86.23279 36623 ft 505 kts 88°
2026-05-05 04:41 43.29547 -86.13650 36618 ft 505 kts 89°
2026-05-05 04:41 43.29845 -86.04025 36600 ft 505 kts 89°
2026-05-05 04:42 43.29960 -85.94459 36598 ft 504 kts 91°
2026-05-05 04:42 43.29980 -85.84834 36596 ft 504 kts 91°
2026-05-05 04:43 43.30017 -85.75208 36595 ft 504 kts 91°
2026-05-05 04:43 43.30042 -85.70367 36062 ft 511 kts 91°
2026-05-05 04:43 43.30065 -85.65494 35437 ft 509 kts 91°
2026-05-05 04:43 43.30085 -85.60632 34696 ft 510 kts 91°
2026-05-05 04:44 43.30104 -85.55770 33944 ft 510 kts 91°
2026-05-05 04:44 43.30121 -85.50886 33082 ft 512 kts 92°
2026-05-05 04:44 43.30136 -85.46057 32199 ft 514 kts 92°
2026-05-05 04:44 43.30150 -85.41155 31296 ft 514 kts 92°
2026-05-05 04:45 43.30162 -85.36242 30410 ft 515 kts 92°
2026-05-05 04:45 43.30173 -85.31353 29775 ft 510 kts 92°
2026-05-05 04:45 43.30180 -85.26512 29052 ft 504 kts 93°
2026-05-05 04:45 43.29801 -85.21805 28361 ft 490 kts 109°
2026-05-05 04:46 43.28603 -85.17530 27719 ft 472 kts 125°
2026-05-05 04:46 43.26890 -85.13766 27097 ft 461 kts 130°
2026-05-05 04:46 43.25123 -85.10118 26423 ft 457 kts 130°
2026-05-05 04:46 43.23371 -85.06510 25804 ft 453 kts 130°
2026-05-05 04:47 43.21646 -85.02912 25158 ft 449 kts 129°
2026-05-05 04:47 43.19953 -84.99333 24537 ft 446 kts 129°
2026-05-05 04:47 43.18300 -84.95815 23917 ft 444 kts 129°
2026-05-05 04:47 43.16636 -84.92264 23290 ft 442 kts 129°
2026-05-05 04:48 43.14981 -84.88734 22659 ft 438 kts 129°
2026-05-05 04:48 43.13367 -84.85299 22479 ft 422 kts 130°
2026-05-05 04:48 43.11739 -84.81977 22109 ft 418 kts 131°
2026-05-05 04:48 43.10091 -84.78713 21738 ft 416 kts 131°
2026-05-05 04:49 43.08436 -84.75464 21424 ft 417 kts 131°
2026-05-05 04:49 43.06779 -84.72207 21068 ft 418 kts 130°
2026-05-05 04:49 43.05123 -84.68940 20733 ft 417 kts 130°
2026-05-05 04:49 43.03478 -84.65683 20381 ft 415 kts 130°
2026-05-05 04:50 43.01866 -84.62488 20051 ft 413 kts 130°
2026-05-05 04:50 43.00242 -84.59270 19743 ft 411 kts 130°
2026-05-05 04:50 42.98623 -84.56065 19410 ft 410 kts 130°
2026-05-05 04:50 42.97006 -84.52867 19074 ft 408 kts 130°
2026-05-05 04:51 42.95394 -84.49685 18741 ft 406 kts 130°
2026-05-05 04:51 42.93795 -84.46517 18385 ft 405 kts 130°
2026-05-05 04:51 42.92218 -84.43339 17997 ft 403 kts 129°
2026-05-05 04:51 42.90663 -84.40183 17570 ft 398 kts 129°
2026-05-05 04:52 42.89131 -84.37069 17163 ft 391 kts 129°
2026-05-05 04:52 42.87647 -84.34060 16749 ft 385 kts 129°
2026-05-05 04:52 42.86158 -84.31049 16407 ft 381 kts 129°
2026-05-05 04:52 42.84687 -84.28084 16041 ft 378 kts 129°
2026-05-05 04:53 42.83218 -84.25130 15689 ft 375 kts 129°
2026-05-05 04:53 42.81761 -84.22201 15332 ft 372 kts 129°
2026-05-05 04:53 42.80313 -84.19293 14981 ft 370 kts 129°
2026-05-05 04:53 42.78873 -84.16401 14636 ft 368 kts 129°
2026-05-05 04:54 42.77438 -84.13524 14293 ft 366 kts 129°
2026-05-05 04:54 42.76008 -84.10661 13941 ft 365 kts 129°
2026-05-05 04:54 42.74585 -84.07808 13594 ft 364 kts 129°
2026-05-05 04:54 42.73190 -84.05009 13402 ft 358 kts 129°
2026-05-05 04:55 42.71800 -84.02221 13117 ft 356 kts 129°
2026-05-05 04:55 42.70409 -83.99439 12790 ft 356 kts 129°
2026-05-05 04:55 42.69042 -83.96667 12441 ft 350 kts 125°
2026-05-05 04:55 42.68136 -83.93612 12124 ft 348 kts 108°
2026-05-05 04:56 42.67555 -83.90457 11777 ft 341 kts 107°
2026-05-05 04:56 42.67006 -83.87340 11446 ft 337 kts 106°
2026-05-05 04:56 42.66456 -83.84258 11118 ft 335 kts 107°
2026-05-05 04:56 42.65897 -83.81191 10810 ft 335 kts 107°
2026-05-05 04:57 42.65327 -83.78128 10486 ft 334 kts 107°
2026-05-05 04:57 42.64757 -83.75091 10163 ft 329 kts 107°
2026-05-05 04:57 42.64194 -83.72109 9858 ft 323 kts 107°
2026-05-05 04:57 42.63653 -83.69250 9655 ft 309 kts 107°
2026-05-05 04:58 42.63114 -83.66420 9278 ft 308 kts 107°
2026-05-05 04:58 42.62580 -83.63621 8944 ft 304 kts 108°
2026-05-05 04:58 42.62017 -83.60878 8625 ft 300 kts 109°
2026-05-05 04:58 42.61439 -83.58179 8328 ft 296 kts 109°
2026-05-05 04:59 42.60865 -83.55519 8036 ft 292 kts 109°
2026-05-05 04:59 42.60299 -83.52892 7755 ft 288 kts 109°
2026-05-05 04:59 42.59751 -83.50340 7488 ft 284 kts 109°
2026-05-05 04:59 42.59200 -83.47775 7214 ft 282 kts 109°
2026-05-05 05:00 42.58653 -83.45225 6955 ft 282 kts 109°
2026-05-05 05:00 42.58104 -83.42666 6694 ft 283 kts 109°
2026-05-05 05:00 42.57552 -83.40099 6418 ft 282 kts 109°
2026-05-05 05:00 42.57006 -83.37560 6156 ft 280 kts 109°
2026-05-05 05:01 42.56453 -83.35039 5883 ft 277 kts 114°
2026-05-05 05:01 42.55442 -83.32974 5648 ft 254 kts 147°
2026-05-05 05:01 42.53989 -83.31816 5471 ft 234 kts 167°
2026-05-05 05:01 42.52461 -83.31235 5288 ft 224 kts 175°
2026-05-05 05:02 42.50939 -83.30803 5127 ft 225 kts 176°
2026-05-05 05:02 42.49391 -83.30382 4965 ft 230 kts 176°
2026-05-05 05:02 42.47815 -83.29947 4782 ft 230 kts 176°
2026-05-05 05:02 42.46264 -83.29508 4572 ft 225 kts 176°
2026-05-05 05:03 42.44747 -83.29074 4383 ft 222 kts 176°
2026-05-05 05:03 42.43240 -83.28643 4221 ft 221 kts 176°
2026-05-05 05:03 42.41735 -83.28210 4014 ft 221 kts 177°
2026-05-05 05:03 42.40239 -83.27777 3859 ft 219 kts 178°
2026-05-05 05:04 42.38763 -83.27348 3667 ft 214 kts 178°
2026-05-05 05:04 42.37320 -83.26928 3506 ft 211 kts 179°
2026-05-05 05:04 42.35913 -83.26520 3365 ft 209 kts 179°
2026-05-05 05:04 42.34488 -83.26109 3178 ft 209 kts 180°
2026-05-05 05:05 42.33077 -83.25745 3035 ft 200 kts 189°
2026-05-05 05:05 42.31869 -83.26228 2886 ft 177 kts 216°
2026-05-05 05:05 42.30745 -83.26974 2640 ft 181 kts 213°
2026-05-05 05:05 42.29623 -83.27751 2391 ft 180 kts 215°
2026-05-05 05:06 42.28540 -83.28546 2135 ft 173 kts 214°
2026-05-05 05:06 42.27533 -83.29294 1910 ft 157 kts 214°
2026-05-05 05:06 42.26608 -83.29971 1732 ft 146 kts 213°
2026-05-05 05:06 42.25719 -83.30635 1524 ft 143 kts 212°
2026-05-05 05:07 42.24894 -83.31243 1352 ft 129 kts 210°
2026-05-05 05:07 42.24143 -83.31796 1184 ft 120 kts 210°
2026-05-05 05:07 42.23398 -83.32350 1015 ft 120 kts 211°
2026-05-05 05:07 42.22671 -83.32891 840 ft 123 kts 211°
2026-05-05 05:08 42.21940 -83.33427 670 ft 117 kts 212°
2026-05-05 05:08 42.21291 -83.33912 651 ft 93 kts 208°
2026-05-05 05:08 42.20858 -83.34227 649 ft 49 kts 208°
2026-05-05 05:08 42.20696 -83.34344 648 ft 4 kts 208°
2026-05-05 05:09 42.20685 -83.34353 648 ft 6 kts 213°
2026-05-05 05:09 42.20649 -83.34398 650 ft 8 kts 225°
2026-05-05 05:09 42.20606 -83.34447 650 ft 8 kts 245°
2026-05-05 05:09 42.20585 -83.34518 650 ft 8 kts 248°
2026-05-05 05:10 42.20574 -83.34610 649 ft 11 kts 295°
2026-05-05 05:10 42.20649 -83.34628 649 ft 13 kts 15°
2026-05-05 05:10 42.20734 -83.34571 649 ft 14 kts 28°
2026-05-05 05:10 42.20821 -83.34509 648 ft 14 kts 28°
2026-05-05 05:11 42.20904 -83.34447 648 ft 13 kts 29°
2026-05-05 05:11 42.20985 -83.34393 648 ft 13 kts
2026-05-05 05:11 42.21052 -83.34461 650 ft 13 kts 302°
2026-05-05 05:11 42.21097 -83.34573 648 ft 14 kts 298°
2026-05-05 05:12 42.21143 -83.34687 647 ft 14 kts 301°
2026-05-05 05:12 42.21195 -83.34812 646 ft 16 kts 302°
2026-05-05 05:12 42.21275 -83.34905 647 ft 15 kts 326°
2026-05-05 05:12 42.21364 -83.34974 648 ft 14 kts 327°
2026-05-05 05:13 42.21447 -83.35044 648 ft 14 kts 329°
2026-05-05 05:13 42.21509 -83.35113 648 ft 8 kts 275°
2026-05-05 05:13 42.21471 -83.35155 648 ft 10 kts 208°
2026-05-05 05:13 42.21412 -83.35205 648 ft 10 kts 245°
2026-05-05 05:14 42.21394 -83.35295 648 ft 10 kts 283°
2026-05-05 05:14 42.21403 -83.35323 648 ft 0 kts 301°